Regional Weather Roundup
Issued by NWS

Home | Current Version | Previous Version | Text Only | Print | Product List | Glossary Off
Versions: 1 2 3 4 5 6 7 8 9 10 11 12 13 14 15 16 17 18 19 20 21 22 23 24 25 26 27 28 29 30 31 32 33 34 35 36 37 38 39 40 41 42 43 44 45 46 47 48 49 50

000
ASUS45 KCYS 192210
RWRWY

WYOMING REGIONAL WEATHER ROUNDUP
NATIONAL WEATHER SERVICE CHEYENNE WY
400 PM MDT TUE AUG 19 2014

NOTE:  "FAIR" INDICATES FEW OR NO CLOUDS BELOW 12,000 FEET
WITH NO SIGNIFICANT WEATHER AND/OR OBSTRUCTIONS TO VISIBILITY.

WYZ001-192300-
YELLOWSTONE NATIONAL PARK

CITY           SKY/WX    TMP DP  RH WIND       PRES   REMARKS
LK YELLOWSTONE   N/A     68  36  30 VRB6      30.10S
W YELLOWSTONE  NOT AVBL

$$
WYZ002>013-054>058-071-098>099-192300-
NORTHERN WYOMING

CITY           SKY/WX    TMP DP  RH WIND       PRES   REMARKS
JACKSON          N/A     72  39  30 W7        29.98F
CODY           CLOUDY    79  43  27 S25G32    29.86F
GREYBULL       PTSUNNY   91  27  10 W22       29.77R
WORLAND        CLOUDY    83  41  22 W21G37    29.79S
SHERIDAN       PTSUNNY   91  34  13 CALM      29.75F
BUFFALO        LGT RAIN  76  46  34 NE14G25   29.84F
GILLETTE       MOSUNNY   90  35  14 NW9       29.79F
HULETT         FAIR      90  37  15 MISG      29.81
NEWCASTLE        N/A     88  34  14 CALM      29.81

$$
WYZ014>020-022>026-101>103-192300-
CENTRAL WYOMING

CITY           SKY/WX    TMP DP  RH WIND       PRES   REMARKS
BIG PINEY      CLOUDY    64  46  52 SW22G31   30.07F
PINEDALE       CLOUDY    68  43  40 SE16      30.08S
DUBOIS         CLOUDY    64  36  34 W17G24    30.05R THUNDER
LANDER         CLOUDY    81  36  19 SE5       29.90F
RIVERTON       CLOUDY    82  34  17 VRB6      29.89F
CASPER         CLOUDY    87  32  14 SW13G24   29.89F
DOUGLAS        CLOUDY    87  36  16 W3        29.87F

$$
WYZ021-027>030-104>119-192300-
SOUTHERN WYOMING

CITY           SKY/WX    TMP DP  RH WIND       PRES   REMARKS
EVANSTON       LGT RAIN  56  51  84 SE5       30.11F
KEMMERER       CLOUDY    59  46  63 S8        30.12F
FORT BRIDGER   CLOUDY    57  55  92 W9        30.14S
ROCK SPRINGS   PTSUNNY   66  48  52 SE13      30.04F
DIXON          MOCLDY    63  54  74 E8        30.11F
RAWLINS        LGT RAIN  63  47  55 SW20G28   30.09F
SARATOGA       CLOUDY    61  46  59 MISG      30.11F
LARAMIE        CLOUDY    74  42  31 E9G18     30.09R
CHEYENNE       CLOUDY    76  41  28 VRB6      30.01S
TORRINGTON     PTSUNNY   93  39  15 NW10      29.79F
PINE BLUFFS    FAIR      86  43  22 N10       29.88F

$$



USA.gov is the U.S. government's official web portal to all federal, state and local government web resources and services.